Joliet, IL

3:30 AM CST on February 11, 2016 (GMT -0600)
Joliet Regional

Weather History for KJOT - November, 2011

Change the Weather History Date:

Monday, November 14, 2011

  Actual Average (KLOT) Record (KLOT)
Temperature  
Mean Temperature 44 °F 42 °F  
Max Temperature 53 °F 49 °F 65 °F (2009)
Min Temperature 35 °F 34 °F 16 °F (1996)
Degree Days  
Heating Degree Days 21 23  
Month to date heating degree days 287  
Since 1 July heating degree days 774  
Cooling Degree Days 0 0  
Month to date cooling degree days 0  
Year to date cooling degree days 862  
Moisture  
Dew Point 37 °F    
Average Humidity 73    
Maximum Humidity 87    
Minimum Humidity 57    
Precipitation  
Precipitation 0.00 in 0.10 in 0.30 in (2001)
Month to date precipitation 1.58  
Year to date precipitation 35.94  
Snow  
Snow 0.00 in 0.00 in 0.30 in (1997)
Month to date snowfall 0.1  
Since 1 July snowfall 0.1  
Since 1 September snowfall 0.1  
Snow Depth -    
Sea Level Pressure  
Sea Level Pressure 29.62 in    
Wind  
Wind Speed 2 mph (ESE)    
Max Wind Speed 6 mph    
Max Gust Speed -    
Visibility 10 miles    
Events Rain    
T = Trace of Precipitation, MM = Missing Value Source: NWS Daily Summary

Daily Weather History Graph

Daily Weather History Graph

Search for Another Location

Airport or City:

Trip Planner

Search our weather history database for the weather conditions in past years. The results will help you decide how hot, cold, wet, or windy it might be!

Date:

Astronomy

Nov. 14, 2011 Rise Set
Actual Time 6:39 AM CST 4:33 PM CST
Civil Twilight 6:10 AM CST 5:03 PM CST
Nautical Twilight 5:36 AM CST 5:36 PM CST
Astronomical Twilight 5:04 AM CST 6:09 PM CST
Moon 7:39 PM CST (11/14) 9:59 AM CST (11/14)
Length of Visible Light 10h 53m
Length of Day
9h 53m
Waning Gibbous, 86% of the Moon is Illuminated
Nov 14
Waning Gibbous
Nov 18
Last Quarter
Nov 25
New
Dec 2
First Quarter
Dec 10
Full

Hourly Weather History & Observations

Time (CST) Temp. Windchill Dew Point Humidity Pressure Visibility Wind Dir Wind Speed Gust Speed Precip Events Conditions
12:35 AM 44.6 °F 42.2 °F 30.2 °F 57% 29.64 in 10.0 mi South 4.6 mph - N/A   Clear
12:55 AM 44.6 °F 42.2 °F 32.0 °F 61% 29.65 in 10.0 mi South 4.6 mph - N/A   Clear
1:15 AM 44.6 °F - 32.0 °F 61% 29.64 in 10.0 mi Calm Calm - N/A   Clear
1:35 AM 42.8 °F 41.1 °F 32.0 °F 66% 29.65 in 10.0 mi South 3.5 mph - N/A   Clear
1:55 AM 44.6 °F 43.1 °F 32.0 °F 61% 29.66 in 10.0 mi South 3.5 mph - N/A   Clear
2:15 AM 44.6 °F 43.1 °F 32.0 °F 61% 29.66 in 10.0 mi South 3.5 mph - N/A   Clear
2:35 AM 44.6 °F - 32.0 °F 61% 29.66 in 10.0 mi Calm Calm - N/A   Clear
2:55 AM 39.2 °F - 32.0 °F 75% 29.64 in 10.0 mi Calm Calm - N/A   Clear
3:15 AM 39.2 °F - 32.0 °F 75% 29.66 in 10.0 mi Calm Calm - N/A   Clear
3:35 AM 35.6 °F - 32.0 °F 87% 29.66 in 10.0 mi Calm Calm - N/A   Clear
3:55 AM 37.4 °F - 32.0 °F 81% 29.66 in 10.0 mi Calm Calm - N/A   Clear
4:15 AM 37.4 °F - 32.0 °F 81% 29.64 in 10.0 mi Calm Calm - N/A   Clear
4:35 AM 39.2 °F - 32.0 °F 75% 29.64 in 10.0 mi Calm Calm - N/A   Clear
4:55 AM 37.4 °F - 32.0 °F 81% 29.65 in 10.0 mi Calm Calm - N/A   Clear
5:15 AM 37.4 °F - 32.0 °F 81% 29.65 in 10.0 mi Calm Calm - N/A   Clear
5:35 AM 37.4 °F - 32.0 °F 81% 29.63 in 10.0 mi Calm Calm - N/A   Clear
5:55 AM 35.6 °F - 32.0 °F 87% 29.63 in 10.0 mi Calm Calm - N/A   Scattered Clouds
6:15 AM 37.4 °F - 32.0 °F 81% 29.63 in 10.0 mi Calm Calm - N/A   Scattered Clouds
6:35 AM 37.4 °F - 32.0 °F 81% 29.63 in 10.0 mi Calm Calm - N/A   Scattered Clouds
6:55 AM 37.4 °F - 33.8 °F 87% 29.63 in 10.0 mi Calm Calm - N/A   Overcast
7:15 AM 41.0 °F - 35.6 °F 81% 29.63 in 10.0 mi Calm Calm - N/A   Overcast
7:35 AM 42.8 °F - 35.6 °F 76% 29.62 in 10.0 mi Calm Calm - N/A   Scattered Clouds
7:55 AM 44.6 °F - 37.4 °F 76% 29.62 in 10.0 mi Calm Calm - N/A   Scattered Clouds
8:15 AM 44.6 °F - 37.4 °F 76% 29.61 in 10.0 mi Calm Calm - N/A   Overcast
8:35 AM 46.4 °F - 39.2 °F 76% 29.60 in 7.0 mi Calm Calm - N/A   Overcast
8:55 AM 46.4 °F - 37.4 °F 71% 29.59 in 10.0 mi Calm Calm - N/A   Overcast
9:15 AM 46.4 °F - 37.4 °F 71% 29.61 in 10.0 mi Calm Calm - N/A   Overcast
9:35 AM 46.4 °F 45.2 °F 37.4 °F 71% 29.60 in 10.0 mi North 3.5 mph - N/A Rain Light Rain
9:55 AM 46.4 °F - 37.4 °F 71% 29.63 in 10.0 mi Calm Calm - N/A Rain Light Rain
10:15 AM 46.4 °F - 39.2 °F 76% 29.62 in 10.0 mi Calm Calm - N/A Rain Light Rain
10:35 AM 46.4 °F - 39.2 °F 76% 29.61 in 10.0 mi Calm Calm - N/A   Overcast
10:55 AM 46.4 °F 45.2 °F 39.2 °F 76% 29.58 in 10.0 mi ENE 3.5 mph - N/A   Mostly Cloudy
11:15 AM 50.0 °F - 41.0 °F 71% 29.56 in 10.0 mi ESE 4.6 mph - N/A   Mostly Cloudy
11:35 AM 50.0 °F - 39.2 °F 66% 29.56 in 10.0 mi East 4.6 mph - N/A   Mostly Cloudy
11:55 AM 50.0 °F - 41.0 °F 71% 29.58 in 10.0 mi ESE 3.5 mph - N/A   Overcast
12:15 PM 48.2 °F - 39.2 °F 71% 29.57 in 10.0 mi Calm Calm - N/A   Overcast
12:35 PM 48.2 °F - 37.4 °F 66% 29.58 in 10.0 mi NNW 4.6 mph - N/A   Overcast
12:55 PM 50.0 °F - 41.0 °F 71% 29.56 in 10.0 mi NW 5.8 mph - N/A   Overcast
1:15 PM 50.0 °F - 42.8 °F 76% 29.56 in 10.0 mi NNW 5.8 mph - N/A   Mostly Cloudy
1:35 PM 50.0 °F - 41.0 °F 71% 29.56 in 10.0 mi NNW 5.8 mph - N/A   Mostly Cloudy
1:55 PM 50.0 °F - 41.0 °F 71% 29.56 in 10.0 mi North 4.6 mph - N/A   Mostly Cloudy
2:15 PM 53.6 °F - 41.0 °F 62% 29.57 in 10.0 mi NNW 4.6 mph - N/A   Scattered Clouds
2:35 PM 53.6 °F - 41.0 °F 62% 29.57 in 10.0 mi NNW 4.6 mph - N/A   Scattered Clouds
2:55 PM 53.6 °F - 41.0 °F 62% 29.59 in 10.0 mi NW 4.6 mph - N/A   Scattered Clouds
3:15 PM 53.6 °F - 39.2 °F 58% 29.59 in 10.0 mi Calm Calm - N/A   Clear
3:35 PM 53.6 °F - 39.2 °F 58% 29.60 in 10.0 mi Calm Calm - N/A   Clear
3:55 PM 51.8 °F - 39.2 °F 62% 29.60 in 10.0 mi Calm Calm - N/A   Clear
4:15 PM 50.0 °F - 39.2 °F 66% 29.61 in 10.0 mi Calm Calm - N/A   Clear
4:35 PM 46.4 °F - 37.4 °F 71% 29.62 in 10.0 mi Calm Calm - N/A   Clear
4:55 PM 46.4 °F - 39.2 °F 76% 29.62 in 10.0 mi Calm Calm - N/A   Clear
5:15 PM 46.4 °F - 41.0 °F 81% 29.63 in 10.0 mi Calm Calm - N/A   Clear
5:35 PM 42.8 °F - 35.6 °F 76% 29.63 in 10.0 mi Calm Calm - N/A   Clear
5:55 PM 44.6 °F 43.1 °F 37.4 °F 76% 29.64 in 10.0 mi SSE 3.5 mph - N/A   Clear
6:15 PM 44.6 °F - 37.4 °F 76% 29.64 in 10.0 mi Calm Calm - N/A   Clear
6:35 PM 46.4 °F 45.2 °F 41.0 °F 81% 29.65 in 10.0 mi South 3.5 mph - N/A   Clear
6:55 PM 46.4 °F 45.2 °F 42.8 °F 87% 29.66 in 10.0 mi South 3.5 mph - N/A   Clear
7:15 PM 44.6 °F - 39.2 °F 81% 29.67 in 10.0 mi Calm Calm - N/A   Clear
7:35 PM 44.6 °F - 41.0 °F 87% 29.66 in 10.0 mi Calm Calm - N/A   Clear
7:55 PM 42.8 °F - 37.4 °F 81% 29.67 in 10.0 mi Calm Calm - N/A   Clear
8:15 PM 42.8 °F - 37.4 °F 81% 29.67 in 7.0 mi Calm Calm - N/A   Clear
8:35 PM 42.8 °F - 37.4 °F 81% 29.68 in 10.0 mi Calm Calm - N/A   Clear
8:55 PM 44.6 °F - 39.2 °F 81% 29.68 in 10.0 mi Calm Calm - N/A   Clear
9:15 PM 42.8 °F - 39.2 °F 87% 29.68 in 7.0 mi Calm Calm - N/A   Clear
9:35 PM 41.0 °F - 35.6 °F 81% 29.70 in 7.0 mi Calm Calm - N/A   Clear
9:55 PM 42.8 °F - 39.2 °F 87% 29.71 in 7.0 mi Calm Calm - N/A   Clear
10:15 PM 42.8 °F - 37.4 °F 81% 29.72 in 4.0 mi Calm Calm - N/A   Clear
10:35 PM 42.8 °F - 37.4 °F 81% 29.73 in 7.0 mi Calm Calm - N/A   Clear
10:55 PM 44.6 °F - 41.0 °F 87% 29.72 in 10.0 mi Calm Calm - N/A   Clear
11:15 PM 42.8 °F - 37.4 °F 81% 29.73 in 10.0 mi Calm Calm - N/A   Clear
11:35 PM 41.0 °F - 35.6 °F 81% 29.74 in 7.0 mi Calm Calm - N/A   Clear
11:55 PM 41.0 °F - 35.6 °F 81% 29.74 in 7.0 mi Calm Calm - N/A   Clear